Flag for United Kingdom Weather past 2 weeks in Cheltenham, England, United Kingdom

Now
47 °F

Cool.


Feels Like: 43 °F
Forecast: 49 / 65 °F
Wind: 7 mph from Northwest

Location: Little Rissington

Current Time: Aug 21, 2014 at 2:01:39 AM

Latest Report: Aug 21, 2014 at 12:00 AM


Visibility: 16 mi

Pressure: 30.06 "Hg

Humidity: 85%

Dew point: 42 °F

Location of CheltenhamLocation

Historic Weather in Cheltenham — Graph

°F

Cheltenham temperature yesterday

Maximum temperature yesterday: 60 °F (at 4:00 PM)
Minimum temperature yesterday: 42 °F (at 6:00 AM)
Average temperature yesterday: 51 °F

Past Weeks' High & Low Weather Summary

 TemperatureHumidityPressure
High72 °F (Aug 6, 4:00 PM)100% (Aug 6, 7:00 AM)30.17 "Hg (Aug 6, 7:00 AM)
Low42 °F (Aug 20, 6:00 AM)41% (Aug 7, 4:00 PM)29.26 "Hg (Aug 10, 11:00 AM)
Average57 °F80%29.83 "Hg
* Reported Midnight between Aug 5 and Aug 6 — Midnight between Aug 20 and Aug 21, Cheltenham, Weather by CustomWeather, © 2014

Note: Actual official high and low records may vary slightly from our data, if they occured in-between our weather recording intervals... More about our weather records

Advertising

Cheltenham weather history for previous 24 hours

 ConditionsComfort  
Time TempWeatherWind HumidityBarometerVisibility
12:00 AM
Aug 21
47 °FCool.7 mph85%30.06 "Hg16 mi
11:00 PM
Aug 20
47 °FCool.7 mph86%30.06 "Hg16 mi
10:00 PM47 °FCool.6 mph87%30.06 "Hg17 mi
9:00 PM49 °FCool.8 mph79%30.06 "Hg18 mi
8:00 PM54 °FCool.6 mph75%30.04 "Hg16 mi
7:00 PM55 °FCool.10 mph66%30.04 "Hg19 mi
6:00 PM57 °FCool.14 mph64%30.03 "Hg19 mi
5:00 PM59 °FRefreshingly cool.7 mph54%30.02 "Hg19 mi
4:00 PM60 °FRefreshingly cool.9 mph52%30.02 "Hg19 mi
3:00 PM59 °FRefreshingly cool.12 mph49%30.03 "Hg19 mi
2:00 PM57 °FRefreshingly cool.12 mph53%30.03 "Hg19 mi
1:00 PM58 °FRefreshingly cool.13 mph53%30.03 "Hg22 mi
12:00 PM55 °FCool.10 mph62%30.04 "Hg19 mi
10:00 AM54 °FCool.12 mph72%30.04 "Hg19 mi
9:00 AM52 °FCool.7 mph81%30.04 "Hg19 mi
8:00 AM49 °FCool.8 mph89%30.03 "Hg16 mi
7:00 AM44 °FQuite cool.9 mph96%30.03 "Hg14 mi
6:00 AM42 °FQuite cool.9 mph96%30.04 "Hg15 mi
5:00 AM43 °FQuite cool.12 mph94%30.03 "Hg15 mi
4:00 AM43 °FQuite cool.10 mph96%30.04 "Hg15 mi
3:00 AM42 °FQuite cool.9 mph93%30.04 "Hg14 mi
2:00 AM46 °FCool.6 mph90%30.04 "Hg14 mi
Weather by CustomWeather, © 2014

See weather overviewHow to use our weather pages